{"data":{"norad_id":57787,"epoch":"2026-05-24T23:42:04.180032Z","epoch_age_seconds":79182,"freshness":"FRESH","line1":"1 57787U 23134S   26144.98754838  .00000404  00000+0  24200-4 0  9995","line2":"2 57787  43.0025 123.7549 0001137 281.4745  78.5979 15.27578795151170","mean_motion":15.27578795,"eccentricity":0.0001137,"inclination_deg":43.0025,"raan_deg":123.7549,"arg_perigee_deg":281.4745,"mean_anomaly_deg":78.5979,"bstar":2.42e-5,"rev_number":15117,"period_min":94.266823074092,"perigee_km":482.27258697615,"apogee_km":483.83282151489,"semimajor_km":6861.1897042455,"source":"CELESTRAK","updated_at":"2026-05-25T13:38:18.407187Z"}}